Time,TemperatureF,DewpointF,PressureIn,WindDirection,WindDirectionDegrees,WindSpeedMPH,WindSpeedGustMPH,Humidity,HourlyPrecipIn,Conditions,Clouds,dailyrainin,SoftwareType,DateUTC
2013-03-29 00:00:00,40.8,25.0,30.40,West,270,0.0,0.0,53,0.00,,,0.00,meteohub,2013-03-29 04:00:00,
2013-03-29 00:01:00,40.8,25.0,30.40,West,270,0.0,0.0,53,0.00,,,0.00,meteohub,2013-03-29 04:01:00,
2013-03-29 00:06:00,40.8,25.0,30.39,West,270,0.0,0.0,53,0.00,,,0.00,meteohub,2013-03-29 04:06:00,
2013-03-29 00:11:00,40.1,24.8,30.39,West,270,0.0,0.0,54,0.00,,,0.00,meteohub,2013-03-29 04:11:00,
2013-03-29 00:17:00,39.6,24.3,30.40,West,270,0.0,0.0,54,0.00,,,0.00,meteohub,2013-03-29 04:17:00,
2013-03-29 00:22:00,39.6,24.8,30.39,West,270,0.0,0.0,55,0.00,,,0.00,meteohub,2013-03-29 04:22:00,
2013-03-29 00:27:00,39.4,25.0,30.39,West,270,0.0,0.0,56,0.00,,,0.00,meteohub,2013-03-29 04:27:00,
2013-03-29 00:33:00,38.8,25.0,30.39,West,270,0.0,0.0,57,0.00,,,0.00,meteohub,2013-03-29 04:33:00,
2013-03-29 00:38:00,38.5,24.6,30.39,West,270,0.0,0.0,57,0.00,,,0.00,meteohub,2013-03-29 04:38:00,
2013-03-29 00:43:00,38.1,24.6,30.39,West,270,0.0,0.0,58,0.00,,,0.00,meteohub,2013-03-29 04:43:00,
2013-03-29 00:49:00,37.9,25.0,30.40,West,270,0.0,0.0,59,0.00,,,0.00,meteohub,2013-03-29 04:49:00,
2013-03-29 00:54:00,37.9,25.3,30.40,West,270,0.0,0.0,60,0.00,,,0.00,meteohub,2013-03-29 04:54:00,
2013-03-29 00:59:00,37.8,25.5,30.40,West,270,0.0,0.0,61,0.00,,,0.00,meteohub,2013-03-29 04:59:00,
2013-03-29 01:04:00,37.4,25.5,30.40,West,270,0.0,0.0,62,0.00,,,0.00,meteohub,2013-03-29 05:04:00,
2013-03-29 01:10:00,37.0,23.7,30.40,West,270,0.0,0.0,58,0.00,,,0.00,meteohub,2013-03-29 05:10:00,
2013-03-29 01:15:00,36.7,23.4,30.40,West,270,0.0,0.0,58,0.00,,,0.00,meteohub,2013-03-29 05:15:00,
2013-03-29 01:20:00,36.3,23.4,30.40,West,270,0.0,0.0,59,0.00,,,0.00,meteohub,2013-03-29 05:20:00,
2013-03-29 01:25:00,36.3,23.7,30.40,West,270,0.0,0.0,60,0.00,,,0.00,meteohub,2013-03-29 05:25:00,
2013-03-29 01:30:00,36.3,24.1,30.40,West,270,0.0,0.0,61,0.00,,,0.00,meteohub,2013-03-29 05:30:00,
2013-03-29 01:35:00,36.3,24.1,30.40,West,270,0.0,0.0,61,0.00,,,0.00,meteohub,2013-03-29 05:35:00,
2013-03-29 01:40:00,36.0,23.9,30.40,West,270,0.0,0.0,61,0.00,,,0.00,meteohub,2013-03-29 05:40:00,
2013-03-29 01:45:00,35.6,23.5,30.40,West,270,0.0,0.0,61,0.00,,,0.00,meteohub,2013-03-29 05:45:00,
2013-03-29 01:50:00,35.2,23.9,30.40,West,270,0.0,0.0,63,0.00,,,0.00,meteohub,2013-03-29 05:50:00,
2013-03-29 01:55:00,35.1,24.1,30.40,West,270,0.0,0.0,64,0.00,,,0.00,meteohub,2013-03-29 05:55:00,
2013-03-29 02:00:00,35.1,24.1,30.40,West,270,0.0,0.0,64,0.00,,,0.00,meteohub,2013-03-29 06:00:00,
2013-03-29 02:06:00,35.1,24.1,30.40,West,270,0.0,0.0,64,0.00,,,0.00,meteohub,2013-03-29 06:06:00,
2013-03-29 02:11:00,35.1,24.1,30.40,West,270,0.0,0.0,64,0.00,,,0.00,meteohub,2013-03-29 06:11:00,
2013-03-29 02:16:00,34.7,24.1,30.39,West,270,0.0,0.0,65,0.00,,,0.00,meteohub,2013-03-29 06:16:00,
2013-03-29 02:22:00,34.3,23.7,30.39,West,270,0.0,0.0,65,0.00,,,0.00,meteohub,2013-03-29 06:22:00,
2013-03-29 02:27:00,34.2,23.5,30.39,West,270,0.0,0.0,65,0.00,,,0.00,meteohub,2013-03-29 06:27:00,
2013-03-29 02:32:00,34.2,24.1,30.40,West,270,0.0,0.0,66,0.00,,,0.00,meteohub,2013-03-29 06:32:00,
2013-03-29 02:37:00,34.2,24.1,30.40,West,270,0.0,0.0,66,0.00,,,0.00,meteohub,2013-03-29 06:37:00,
2013-03-29 02:42:00,34.2,24.1,30.39,West,270,0.0,0.0,66,0.00,,,0.00,meteohub,2013-03-29 06:42:00,
2013-03-29 02:47:00,33.8,23.7,30.39,West,270,0.0,0.0,66,0.00,,,0.00,meteohub,2013-03-29 06:47:00,
2013-03-29 02:53:00,33.6,23.9,30.39,West,270,0.0,0.0,67,0.00,,,0.00,meteohub,2013-03-29 06:53:00,
2013-03-29 02:58:00,33.4,23.7,30.39,West,270,0.0,0.0,67,0.00,,,0.00,meteohub,2013-03-29 06:58:00,
2013-03-29 03:03:00,33.4,24.1,30.39,West,270,0.0,0.0,68,0.00,,,0.00,meteohub,2013-03-29 07:03:00,
2013-03-29 03:08:00,33.3,23.9,30.39,West,270,0.0,0.0,68,0.00,,,0.00,meteohub,2013-03-29 07:08:00,
2013-03-29 03:13:00,33.3,24.3,30.39,West,270,0.0,0.0,69,0.00,,,0.00,meteohub,2013-03-29 07:13:00,
2013-03-29 03:19:00,33.3,24.3,30.39,West,270,0.0,0.0,69,0.00,,,0.00,meteohub,2013-03-29 07:19:00,
2013-03-29 03:24:00,33.1,24.4,30.39,West,270,0.0,0.0,70,0.00,,,0.00,meteohub,2013-03-29 07:24:00,
2013-03-29 03:29:00,32.9,24.3,30.39,West,270,0.0,0.0,70,0.00,,,0.00,meteohub,2013-03-29 07:29:00,
2013-03-29 03:34:00,32.7,24.4,30.38,West,270,0.0,0.0,71,0.00,,,0.00,meteohub,2013-03-29 07:34:00,
2013-03-29 03:39:00,32.7,24.6,30.39,West,270,0.0,0.0,72,0.00,,,0.00,meteohub,2013-03-29 07:39:00,
2013-03-29 03:44:00,32.9,24.8,30.39,West,270,0.0,0.0,72,0.00,,,0.00,meteohub,2013-03-29 07:44:00,
2013-03-29 03:50:00,32.7,24.6,30.39,West,270,0.0,0.0,72,0.00,,,0.00,meteohub,2013-03-29 07:50:00,
2013-03-29 03:55:00,32.5,24.4,30.38,West,270,0.0,0.0,72,0.00,,,0.00,meteohub,2013-03-29 07:55:00,
2013-03-29 04:00:00,32.4,24.3,30.38,West,270,0.0,0.0,72,0.00,,,0.00,meteohub,2013-03-29 08:00:00,
2013-03-29 04:05:00,32.2,24.4,30.39,West,270,0.0,0.0,73,0.00,,,0.00,meteohub,2013-03-29 08:05:00,
2013-03-29 04:10:00,32.4,24.6,30.39,West,270,0.0,0.0,73,0.00,,,0.00,meteohub,2013-03-29 08:10:00,
2013-03-29 04:15:00,32.2,24.4,30.39,West,270,0.0,0.0,73,0.00,,,0.00,meteohub,2013-03-29 08:15:00,
2013-03-29 04:20:00,32.2,24.4,30.39,West,270,0.0,0.0,73,0.00,,,0.00,meteohub,2013-03-29 08:20:00,
2013-03-29 04:25:00,32.0,24.3,30.39,West,270,0.0,0.0,73,0.00,,,0.00,meteohub,2013-03-29 08:25:00,
2013-03-29 04:30:00,31.8,24.4,30.39,West,270,0.0,0.0,74,0.00,,,0.00,meteohub,2013-03-29 08:30:00,
2013-03-29 04:35:00,31.6,24.3,30.39,West,270,0.0,0.0,74,0.00,,,0.00,meteohub,2013-03-29 08:35:00,
2013-03-29 04:40:00,31.5,24.4,30.39,West,270,0.0,0.0,75,0.00,,,0.00,meteohub,2013-03-29 08:40:00,
2013-03-29 04:45:00,31.3,24.3,30.39,West,270,0.0,0.0,75,0.00,,,0.00,meteohub,2013-03-29 08:45:00,
2013-03-29 04:51:00,31.1,24.1,30.39,West,270,0.0,0.0,75,0.00,,,0.00,meteohub,2013-03-29 08:51:00,
2013-03-29 04:56:00,31.1,24.1,30.39,West,270,0.0,0.0,75,0.00,,,0.00,meteohub,2013-03-29 08:56:00,
2013-03-29 05:01:00,30.9,23.9,30.39,West,270,0.0,0.0,75,0.00,,,0.00,meteohub,2013-03-29 09:01:00,
2013-03-29 05:06:00,30.9,24.3,30.39,West,270,0.0,0.0,76,0.00,,,0.00,meteohub,2013-03-29 09:06:00,
2013-03-29 05:12:00,30.9,24.3,30.39,West,270,0.0,0.0,76,0.00,,,0.00,meteohub,2013-03-29 09:12:00,
2013-03-29 05:18:00,30.7,24.1,30.39,West,270,0.0,0.0,76,0.00,,,0.00,meteohub,2013-03-29 09:18:00,
2013-03-29 05:23:00,30.6,23.9,30.39,West,270,0.0,0.0,76,0.00,,,0.00,meteohub,2013-03-29 09:23:00,
2013-03-29 05:28:00,30.6,23.9,30.39,West,270,0.0,0.0,76,0.00,,,0.00,meteohub,2013-03-29 09:28:00,
2013-03-29 05:33:00,30.4,23.7,30.39,West,270,0.0,0.0,76,0.00,,,0.00,meteohub,2013-03-29 09:33:00,
2013-03-29 05:38:00,30.6,24.3,30.40,West,270,0.0,0.0,77,0.00,,,0.00,meteohub,2013-03-29 09:38:00,
2013-03-29 05:43:00,30.6,24.3,30.39,West,270,0.0,0.0,77,0.00,,,0.00,meteohub,2013-03-29 09:43:00,
2013-03-29 05:48:00,30.4,24.1,30.39,West,270,0.0,0.0,77,0.00,,,0.00,meteohub,2013-03-29 09:48:00,
2013-03-29 05:53:00,30.4,24.1,30.39,West,270,0.0,0.0,77,0.00,,,0.00,meteohub,2013-03-29 09:53:00,
2013-03-29 05:58:00,30.4,24.1,30.39,West,270,0.0,0.0,77,0.00,,,0.00,meteohub,2013-03-29 09:58:00,
2013-03-29 06:03:00,30.2,24.3,30.40,West,270,0.0,0.0,78,0.00,,,0.00,meteohub,2013-03-29 10:03:00,
2013-03-29 06:09:00,30.2,24.3,30.40,West,270,0.0,0.0,78,0.00,,,0.00,meteohub,2013-03-29 10:09:00,
2013-03-29 06:14:00,30.2,24.3,30.40,West,270,0.0,0.0,78,0.00,,,0.00,meteohub,2013-03-29 10:14:00,
2013-03-29 06:19:00,30.0,24.3,30.40,West,270,0.0,0.0,79,0.00,,,0.00,meteohub,2013-03-29 10:19:00,
2013-03-29 06:24:00,30.0,24.3,30.40,West,270,0.0,0.0,79,0.00,,,0.00,meteohub,2013-03-29 10:24:00,
2013-03-29 06:29:00,30.0,24.3,30.40,West,270,0.0,0.0,79,0.00,,,0.00,meteohub,2013-03-29 10:29:00,
2013-03-29 06:34:00,30.0,24.3,30.40,West,270,0.0,0.0,79,0.00,,,0.00,meteohub,2013-03-29 10:34:00,
2013-03-29 06:40:00,30.0,24.6,30.40,West,270,0.0,0.0,80,0.00,,,0.00,meteohub,2013-03-29 10:40:00,
2013-03-29 06:45:00,30.0,24.6,30.40,West,270,0.0,0.0,80,0.00,,,0.00,meteohub,2013-03-29 10:45:00,
2013-03-29 06:50:00,29.8,24.4,30.41,West,270,0.0,0.0,80,0.00,,,0.00,meteohub,2013-03-29 10:50:00,
2013-03-29 06:55:00,29.8,24.4,30.41,West,270,0.0,0.0,80,0.00,,,0.00,meteohub,2013-03-29 10:55:00,
2013-03-29 07:00:00,30.0,25.0,30.41,West,270,0.0,0.0,81,0.00,,,0.00,meteohub,2013-03-29 11:00:00,
2013-03-29 07:05:00,30.0,25.0,30.41,West,270,0.0,0.0,81,0.00,,,0.00,meteohub,2013-03-29 11:05:00,
2013-03-29 07:10:00,30.0,25.0,30.41,West,270,0.0,0.0,81,0.00,,,0.00,meteohub,2013-03-29 11:10:00,
2013-03-29 07:15:00,30.0,25.2,30.41,West,270,0.0,0.0,82,0.00,,,0.00,meteohub,2013-03-29 11:15:00,
2013-03-29 07:20:00,30.2,25.2,30.42,West,270,0.0,0.0,81,0.00,,,0.00,meteohub,2013-03-29 11:20:00,
2013-03-29 07:25:00,30.2,25.2,30.42,West,270,0.0,0.0,81,0.00,,,0.00,meteohub,2013-03-29 11:25:00,
2013-03-29 07:31:00,30.4,25.3,30.42,West,270,0.0,0.0,81,0.00,,,0.00,meteohub,2013-03-29 11:31:00,
2013-03-29 07:36:00,30.4,25.3,30.42,West,270,0.0,0.0,81,0.00,,,0.00,meteohub,2013-03-29 11:36:00,
2013-03-29 07:41:00,30.6,25.7,30.42,West,270,0.0,0.0,82,0.00,,,0.00,meteohub,2013-03-29 11:41:00,
2013-03-29 07:46:00,30.9,26.1,30.43,West,270,0.0,0.0,82,0.00,,,0.00,meteohub,2013-03-29 11:46:00,
2013-03-29 07:52:00,31.3,26.4,30.43,West,270,0.0,0.0,82,0.00,,,0.00,meteohub,2013-03-29 11:52:00,
2013-03-29 07:57:00,31.5,26.6,30.43,West,270,0.0,0.0,82,0.00,,,0.00,meteohub,2013-03-29 11:57:00,
2013-03-29 08:02:00,32.0,26.8,30.43,West,270,0.0,0.0,81,0.00,,,0.00,meteohub,2013-03-29 12:02:00,
2013-03-29 08:07:00,32.4,27.1,30.43,West,270,0.0,0.0,81,0.00,,,0.00,meteohub,2013-03-29 12:07:00,
2013-03-29 08:12:00,32.9,27.7,30.43,West,270,0.0,0.0,81,0.00,,,0.00,meteohub,2013-03-29 12:12:00,
2013-03-29 08:18:00,33.4,28.2,30.43,West,270,0.0,0.0,81,0.00,,,0.00,meteohub,2013-03-29 12:18:00,
2013-03-29 08:23:00,34.0,28.4,30.43,West,270,0.0,0.0,80,0.00,,,0.00,meteohub,2013-03-29 12:23:00,
2013-03-29 08:28:00,34.7,29.1,30.43,West,270,0.0,0.0,80,0.00,,,0.00,meteohub,2013-03-29 12:28:00,
2013-03-29 08:33:00,36.0,29.8,30.43,West,270,0.0,0.0,78,0.00,,,0.00,meteohub,2013-03-29 12:33:00,
2013-03-29 08:38:00,39.0,32.7,30.43,West,270,0.0,0.0,78,0.00,,,0.00,meteohub,2013-03-29 12:38:00,
2013-03-29 08:44:00,41.4,30.6,30.43,West,270,0.0,0.0,65,0.00,,,0.00,meteohub,2013-03-29 12:44:00,
2013-03-29 08:49:00,41.7,29.7,30.43,West,270,0.0,0.0,62,0.00,,,0.00,meteohub,2013-03-29 12:49:00,
2013-03-29 08:54:00,42.6,30.6,30.43,West,270,0.0,0.0,62,0.00,,,0.00,meteohub,2013-03-29 12:54:00,
2013-03-29 08:59:00,43.5,29.7,30.43,NW,315,0.0,0.0,58,0.00,,,0.00,meteohub,2013-03-29 12:59:00,
2013-03-29 09:04:00,44.1,28.9,30.43,West,270,0.0,0.0,55,0.00,,,0.00,meteohub,2013-03-29 13:04:00,
2013-03-29 09:09:00,44.6,28.6,30.43,West,270,0.0,0.0,53,0.00,,,0.00,meteohub,2013-03-29 13:09:00,
2013-03-29 09:14:00,45.5,28.9,30.43,West,270,0.0,0.0,52,0.00,,,0.00,meteohub,2013-03-29 13:14:00,
2013-03-29 09:19:00,47.1,29.8,30.43,West,270,0.0,0.0,51,0.00,,,0.00,meteohub,2013-03-29 13:19:00,
2013-03-29 09:24:00,48.4,28.6,30.43,West,270,0.0,0.0,46,0.00,,,0.00,meteohub,2013-03-29 13:24:00,
2013-03-29 09:30:00,47.8,28.0,30.43,NW,315,0.0,0.0,46,0.00,,,0.00,meteohub,2013-03-29 13:30:00,
2013-03-29 09:35:00,47.1,26.8,30.43,West,270,0.0,2.0,45,0.00,,,0.00,meteohub,2013-03-29 13:35:00,
2013-03-29 09:40:00,47.1,27.3,30.42,West,270,0.0,3.0,46,0.00,,,0.00,meteohub,2013-03-29 13:40:00,
2013-03-29 09:45:00,47.5,27.7,30.42,West,270,0.0,3.0,46,0.00,,,0.00,meteohub,2013-03-29 13:45:00,
2013-03-29 09:50:00,48.6,28.8,30.43,West,270,0.0,0.0,46,0.00,,,0.00,meteohub,2013-03-29 13:50:00,
2013-03-29 09:56:00,49.6,28.6,30.42,West,270,0.0,0.0,44,0.00,,,0.00,meteohub,2013-03-29 13:56:00,
2013-03-29 10:01:00,49.3,28.2,30.42,West,270,0.0,0.0,44,0.00,,,0.00,meteohub,2013-03-29 14:01:00,
2013-03-29 10:06:00,49.5,27.3,30.42,West,270,0.0,0.0,42,0.00,,,0.00,meteohub,2013-03-29 14:06:00,
2013-03-29 10:11:00,49.5,26.1,30.42,West,270,0.0,0.0,40,0.00,,,0.00,meteohub,2013-03-29 14:11:00,
2013-03-29 10:16:00,49.8,26.4,30.41,West,270,0.0,0.0,40,0.00,,,0.00,meteohub,2013-03-29 14:16:00,
2013-03-29 10:21:00,49.8,24.6,30.42,West,270,0.0,0.0,37,0.00,,,0.00,meteohub,2013-03-29 14:21:00,
2013-03-29 10:26:00,50.4,23.7,30.42,West,270,0.0,0.0,35,0.00,,,0.00,meteohub,2013-03-29 14:26:00,
2013-03-29 10:31:00,51.1,25.0,30.41,West,270,0.0,0.0,36,0.00,,,0.00,meteohub,2013-03-29 14:31:00,
2013-03-29 10:37:00,51.6,25.5,30.41,West,270,0.0,0.0,36,0.00,,,0.00,meteohub,2013-03-29 14:37:00,
2013-03-29 10:42:00,52.0,23.7,30.41,West,270,0.0,0.0,33,0.00,,,0.00,meteohub,2013-03-29 14:42:00,
2013-03-29 10:47:00,52.2,24.6,30.41,West,270,0.0,0.0,34,0.00,,,0.00,meteohub,2013-03-29 14:47:00,
2013-03-29 10:52:00,53.2,25.5,30.40,West,270,0.0,0.0,34,0.00,,,0.00,meteohub,2013-03-29 14:52:00,
2013-03-29 10:57:00,54.7,25.3,30.41,NW,315,0.0,0.0,32,0.00,,,0.00,meteohub,2013-03-29 14:57:00,
2013-03-29 11:02:00,55.4,24.4,30.41,West,270,0.0,0.0,30,0.00,,,0.00,meteohub,2013-03-29 15:02:00,
2013-03-29 11:08:00,54.1,20.8,30.41,NW,315,0.0,0.0,27,0.00,,,0.00,meteohub,2013-03-29 15:08:00,
2013-03-29 11:13:00,54.9,24.8,30.41,NW,315,0.0,0.0,31,0.00,,,0.00,meteohub,2013-03-29 15:13:00,
2013-03-29 11:18:00,55.0,23.4,30.40,West,270,0.0,0.0,29,0.00,,,0.00,meteohub,2013-03-29 15:18:00,
2013-03-29 11:23:00,54.1,22.6,30.40,NW,315,0.0,0.0,29,0.00,,,0.00,meteohub,2013-03-29 15:23:00,
2013-03-29 11:28:00,53.6,22.8,30.40,West,270,0.0,0.0,30,0.00,,,0.00,meteohub,2013-03-29 15:28:00,
2013-03-29 11:33:00,53.8,23.9,30.40,West,270,0.0,0.0,31,0.00,,,0.00,meteohub,2013-03-29 15:33:00,
2013-03-29 11:38:00,53.6,23.7,30.41,West,270,0.0,0.0,31,0.00,,,0.00,meteohub,2013-03-29 15:38:00,
2013-03-29 11:43:00,53.6,23.7,30.40,West,270,0.0,0.0,31,0.00,,,0.00,meteohub,2013-03-29 15:43:00,
2013-03-29 11:48:00,54.0,24.8,30.40,West,270,0.0,0.0,32,0.00,,,0.00,meteohub,2013-03-29 15:48:00,
2013-03-29 11:54:00,54.3,24.3,30.40,NW,315,0.0,0.0,31,0.00,,,0.00,meteohub,2013-03-29 15:54:00,
2013-03-29 11:59:00,54.5,22.8,30.39,NW,315,0.0,0.0,29,0.00,,,0.00,meteohub,2013-03-29 15:59:00,
2013-03-29 12:04:00,54.5,22.8,30.39,West,270,0.0,0.0,29,0.00,,,0.00,meteohub,2013-03-29 16:04:00,
2013-03-29 12:09:00,54.7,23.9,30.39,West,270,0.0,0.0,30,0.00,,,0.00,meteohub,2013-03-29 16:09:00,
2013-03-29 12:14:00,54.7,23.0,30.39,West,270,0.0,0.0,29,0.00,,,0.00,meteohub,2013-03-29 16:14:00,
2013-03-29 12:19:00,54.5,22.1,30.39,NW,315,0.0,0.0,28,0.00,,,0.00,meteohub,2013-03-29 16:19:00,
2013-03-29 12:24:00,54.7,24.6,30.39,NW,315,0.0,0.0,31,0.00,,,0.00,meteohub,2013-03-29 16:24:00,
2013-03-29 12:29:00,55.9,26.4,30.38,West,270,0.0,0.0,32,0.00,,,0.00,meteohub,2013-03-29 16:29:00,
2013-03-29 12:34:00,56.3,24.4,30.38,West,270,0.0,0.0,29,0.00,,,0.00,meteohub,2013-03-29 16:34:00,
2013-03-29 12:40:00,56.1,22.6,30.38,NW,315,0.0,0.0,27,0.00,,,0.00,meteohub,2013-03-29 16:40:00,
2013-03-29 12:45:00,56.3,23.5,30.38,West,270,0.0,0.0,28,0.00,,,0.00,meteohub,2013-03-29 16:45:00,
2013-03-29 12:50:00,57.7,24.8,30.37,West,270,0.0,0.0,28,0.00,,,0.00,meteohub,2013-03-29 16:50:00,
2013-03-29 12:55:00,57.9,22.3,30.37,WNW,293,0.0,0.0,25,0.00,,,0.00,meteohub,2013-03-29 16:55:00,
2013-03-29 13:00:00,57.7,23.0,30.38,West,270,0.0,0.0,26,0.00,,,0.00,meteohub,2013-03-29 17:00:00,
2013-03-29 13:05:00,57.7,23.0,30.37,North,0,0.0,0.0,26,0.00,,,0.00,meteohub,2013-03-29 17:05:00,
2013-03-29 13:10:00,59.2,23.4,30.36,West,270,0.0,0.0,25,0.00,,,0.00,meteohub,2013-03-29 17:10:00,
2013-03-29 13:16:00,59.2,23.4,30.36,West,270,0.0,0.0,25,0.00,,,0.00,meteohub,2013-03-29 17:16:00,
2013-03-29 13:21:00,58.8,23.0,30.36,NW,315,0.0,0.0,25,0.00,,,0.00,meteohub,2013-03-29 17:21:00,
2013-03-29 13:26:00,59.9,23.9,30.36,West,270,0.0,0.0,25,0.00,,,0.00,meteohub,2013-03-29 17:26:00,
2013-03-29 13:31:00,60.8,22.8,30.35,NW,315,0.0,0.0,23,0.00,,,0.00,meteohub,2013-03-29 17:31:00,
2013-03-29 13:37:00,60.6,22.6,30.35,West,270,0.0,0.0,23,0.00,,,0.00,meteohub,2013-03-29 17:37:00,
2013-03-29 13:42:00,59.0,21.2,30.35,West,270,0.0,0.0,23,0.00,,,0.00,meteohub,2013-03-29 17:42:00,
2013-03-29 13:47:00,58.3,22.6,30.35,NW,315,0.0,0.0,25,0.00,,,0.00,meteohub,2013-03-29 17:47:00,
2013-03-29 13:52:00,58.3,21.6,30.35,West,270,0.0,0.0,24,0.00,,,0.00,meteohub,2013-03-29 17:52:00,
2013-03-29 13:57:00,58.5,22.8,30.35,NW,315,0.0,0.0,25,0.00,,,0.00,meteohub,2013-03-29 17:57:00,
2013-03-29 14:02:00,59.0,22.3,30.34,West,270,0.0,5.0,24,0.00,,,0.00,meteohub,2013-03-29 18:02:00,
2013-03-29 14:07:00,59.2,22.5,30.34,NW,315,0.0,5.0,24,0.00,,,0.00,meteohub,2013-03-29 18:07:00,
2013-03-29 14:12:00,59.9,23.0,30.33,West,270,0.0,5.0,24,0.00,,,0.00,meteohub,2013-03-29 18:12:00,
2013-03-29 14:18:00,59.9,21.9,30.33,West,270,0.0,0.0,23,0.00,,,0.00,meteohub,2013-03-29 18:18:00,
2013-03-29 14:23:00,59.2,21.4,30.33,NW,315,0.0,0.0,23,0.00,,,0.00,meteohub,2013-03-29 18:23:00,
2013-03-29 14:28:00,59.5,22.6,30.33,NW,315,0.0,0.0,24,0.00,,,0.00,meteohub,2013-03-29 18:28:00,
2013-03-29 14:34:00,60.4,23.5,30.33,NW,315,0.0,0.0,24,0.00,,,0.00,meteohub,2013-03-29 18:34:00,
2013-03-29 14:39:00,60.8,21.7,30.32,SW,225,0.0,0.0,22,0.00,,,0.00,meteohub,2013-03-29 18:39:00,
2013-03-29 14:44:00,60.3,23.4,30.32,South,180,0.0,0.0,24,0.00,,,0.00,meteohub,2013-03-29 18:44:00,
2013-03-29 14:49:00,59.9,21.9,30.32,WSW,248,1.0,0.0,23,0.00,,,0.00,meteohub,2013-03-29 18:49:00,
2013-03-29 14:54:00,59.7,22.8,30.32,West,270,0.0,1.0,24,0.00,,,0.00,meteohub,2013-03-29 18:54:00,
2013-03-29 14:59:00,59.5,21.7,30.32,NW,315,0.0,1.0,23,0.00,,,0.00,meteohub,2013-03-29 18:59:00,
2013-03-29 15:04:00,59.5,21.7,30.32,West,270,0.0,1.0,23,0.00,,,0.00,meteohub,2013-03-29 19:04:00,
2013-03-29 15:09:00,59.2,21.4,30.32,NW,315,0.0,0.0,23,0.00,,,0.00,meteohub,2013-03-29 19:09:00,
2013-03-29 15:14:00,59.0,21.2,30.31,NW,315,0.0,0.0,23,0.00,,,0.00,meteohub,2013-03-29 19:14:00,
2013-03-29 15:19:00,59.2,22.5,30.31,West,270,0.0,0.0,24,0.00,,,0.00,meteohub,2013-03-29 19:19:00,
2013-03-29 15:24:00,59.4,21.6,30.31,West,270,0.0,0.0,23,0.00,,,0.00,meteohub,2013-03-29 19:24:00,
2013-03-29 15:29:00,59.7,21.9,30.30,West,270,0.0,0.0,23,0.00,,,0.00,meteohub,2013-03-29 19:29:00,
2013-03-29 15:34:00,59.9,21.9,30.31,WNW,293,0.0,0.0,23,0.00,,,0.00,meteohub,2013-03-29 19:34:00,
2013-03-29 15:40:00,59.4,21.6,30.30,West,270,0.0,0.0,23,0.00,,,0.00,meteohub,2013-03-29 19:40:00,
2013-03-29 15:45:00,59.2,21.4,30.30,West,270,0.0,0.0,23,0.00,,,0.00,meteohub,2013-03-29 19:45:00,
2013-03-29 15:50:00,59.7,21.9,30.30,West,270,0.0,0.0,23,0.00,,,0.00,meteohub,2013-03-29 19:50:00,
2013-03-29 15:55:00,59.9,21.9,30.30,West,270,0.0,0.0,23,0.00,,,0.00,meteohub,2013-03-29 19:55:00,
2013-03-29 16:00:00,60.8,21.7,30.30,West,270,0.0,0.0,22,0.00,,,0.00,meteohub,2013-03-29 20:00:00,
2013-03-29 16:05:00,61.0,21.9,30.30,NW,315,0.0,0.0,22,0.00,,,0.00,meteohub,2013-03-29 20:05:00,
2013-03-29 16:10:00,60.3,22.3,30.30,NW,315,0.0,0.0,23,0.00,,,0.00,meteohub,2013-03-29 20:10:00,
2013-03-29 16:15:00,59.5,21.7,30.29,West,270,0.0,4.0,23,0.00,,,0.00,meteohub,2013-03-29 20:15:00,
2013-03-29 16:20:00,59.5,21.7,30.30,West,270,0.0,4.0,23,0.00,,,0.00,meteohub,2013-03-29 20:20:00,
2013-03-29 16:26:00,60.1,22.1,30.29,West,270,0.0,4.0,23,0.00,,,0.00,meteohub,2013-03-29 20:26:00,
2013-03-29 16:31:00,60.4,22.5,30.29,WNW,293,0.0,0.0,23,0.00,,,0.00,meteohub,2013-03-29 20:31:00,
2013-03-29 16:36:00,60.3,22.3,30.29,NW,315,0.0,0.0,23,0.00,,,0.00,meteohub,2013-03-29 20:36:00,
2013-03-29 16:41:00,60.4,22.5,30.29,NW,315,0.0,0.0,23,0.00,,,0.00,meteohub,2013-03-29 20:41:00,
2013-03-29 16:46:00,60.4,22.5,30.29,West,270,0.0,0.0,23,0.00,,,0.00,meteohub,2013-03-29 20:46:00,
2013-03-29 16:51:00,60.3,22.3,30.28,West,270,0.0,0.0,23,0.00,,,0.00,meteohub,2013-03-29 20:51:00,
2013-03-29 16:57:00,60.4,22.5,30.28,West,270,0.0,1.0,23,0.00,,,0.00,meteohub,2013-03-29 20:57:00,
2013-03-29 17:02:00,60.1,22.1,30.29,NW,315,0.0,2.0,23,0.00,,,0.00,meteohub,2013-03-29 21:02:00,
2013-03-29 17:07:00,59.7,21.9,30.28,West,270,0.0,2.0,23,0.00,,,0.00,meteohub,2013-03-29 21:07:00,
2013-03-29 17:12:00,59.9,21.9,30.29,NW,315,0.0,2.0,23,0.00,,,0.00,meteohub,2013-03-29 21:12:00,
2013-03-29 17:17:00,59.9,21.9,30.28,NW,315,0.0,2.0,23,0.00,,,0.00,meteohub,2013-03-29 21:17:00,
2013-03-29 17:22:00,59.9,21.9,30.28,NW,315,0.0,2.0,23,0.00,,,0.00,meteohub,2013-03-29 21:22:00,
2013-03-29 17:28:00,59.9,21.9,30.29,NW,315,0.0,0.0,23,0.00,,,0.00,meteohub,2013-03-29 21:28:00,
2013-03-29 17:33:00,60.1,22.1,30.29,West,270,0.0,0.0,23,0.00,,,0.00,meteohub,2013-03-29 21:33:00,
2013-03-29 17:38:00,60.1,22.1,30.29,West,270,0.0,0.0,23,0.00,,,0.00,meteohub,2013-03-29 21:38:00,
2013-03-29 17:43:00,60.3,22.3,30.28,West,270,0.0,0.0,23,0.00,,,0.00,meteohub,2013-03-29 21:43:00,
2013-03-29 17:48:00,60.4,22.5,30.28,NW,315,0.0,0.0,23,0.00,,,0.00,meteohub,2013-03-29 21:48:00,
2013-03-29 17:53:00,60.4,22.5,30.29,NW,315,0.0,0.0,23,0.00,,,0.00,meteohub,2013-03-29 21:53:00,
2013-03-29 17:58:00,60.4,22.5,30.28,NW,315,0.0,0.0,23,0.00,,,0.00,meteohub,2013-03-29 21:58:00,
2013-03-29 18:03:00,60.6,22.6,30.28,West,270,0.0,0.0,23,0.00,,,0.00,meteohub,2013-03-29 22:03:00,
2013-03-29 18:08:00,60.4,22.5,30.28,West,270,0.0,0.0,23,0.00,,,0.00,meteohub,2013-03-29 22:08:00,
2013-03-29 18:14:00,61.0,21.9,30.28,NW,315,0.0,0.0,22,0.00,,,0.00,meteohub,2013-03-29 22:14:00,
2013-03-29 18:19:00,61.3,22.1,30.28,NW,315,0.0,0.0,22,0.00,,,0.00,meteohub,2013-03-29 22:19:00,
2013-03-29 18:24:00,60.8,21.7,30.28,NW,315,0.0,0.0,22,0.00,,,0.00,meteohub,2013-03-29 22:24:00,
2013-03-29 18:29:00,60.8,21.7,30.28,West,270,0.0,0.0,22,0.00,,,0.00,meteohub,2013-03-29 22:29:00,
2013-03-29 18:34:00,60.3,22.3,30.28,West,270,0.0,0.0,23,0.00,,,0.00,meteohub,2013-03-29 22:34:00,
2013-03-29 18:39:00,60.1,22.1,30.28,WNW,293,0.0,0.0,23,0.00,,,0.00,meteohub,2013-03-29 22:39:00,
2013-03-29 18:44:00,59.5,21.7,30.28,NW,315,0.0,0.0,23,0.00,,,0.00,meteohub,2013-03-29 22:44:00,
2013-03-29 18:49:00,59.2,21.4,30.28,NW,315,0.0,0.0,23,0.00,,,0.00,meteohub,2013-03-29 22:49:00,
2013-03-29 18:54:00,59.0,21.2,30.28,West,270,0.0,0.0,23,0.00,,,0.00,meteohub,2013-03-29 22:54:00,
2013-03-29 19:00:00,59.0,21.2,30.28,West,270,0.0,0.0,23,0.00,,,0.00,meteohub,2013-03-29 23:00:00,
2013-03-29 19:05:00,58.6,21.9,30.28,West,270,0.0,0.0,24,0.00,,,0.00,meteohub,2013-03-29 23:05:00,
2013-03-29 19:10:00,58.1,21.6,30.28,NW,315,0.0,0.0,24,0.00,,,0.00,meteohub,2013-03-29 23:10:00,
2013-03-29 19:15:00,57.7,21.2,30.28,NW,315,0.0,0.0,24,0.00,,,0.00,meteohub,2013-03-29 23:15:00,
2013-03-29 19:20:00,57.4,20.8,30.28,NW,315,0.0,0.0,24,0.00,,,0.00,meteohub,2013-03-29 23:20:00,
2013-03-29 19:25:00,57.0,22.5,30.28,NW,315,0.0,0.0,26,0.00,,,0.00,meteohub,2013-03-29 23:25:00,
2013-03-29 19:31:00,56.5,22.8,30.28,NW,315,0.0,0.0,27,0.00,,,0.00,meteohub,2013-03-29 23:31:00,
2013-03-29 19:36:00,55.8,23.9,30.28,NW,315,0.0,0.0,29,0.00,,,0.00,meteohub,2013-03-29 23:36:00,
2013-03-29 19:41:00,55.0,22.5,30.29,NW,315,0.0,0.0,28,0.00,,,0.00,meteohub,2013-03-29 23:41:00,
2013-03-29 19:47:00,54.3,22.6,30.29,NW,315,0.0,0.0,29,0.00,,,0.00,meteohub,2013-03-29 23:47:00,
2013-03-29 19:52:00,53.2,24.1,30.29,NW,315,0.0,0.0,32,0.00,,,0.00,meteohub,2013-03-29 23:52:00,
2013-03-29 19:57:00,52.7,24.4,30.29,NW,315,0.0,0.0,33,0.00,,,0.00,meteohub,2013-03-29 23:57:00,
2013-03-29 20:02:00,52.0,24.4,30.29,NW,315,0.0,0.0,34,0.00,,,0.00,meteohub,2013-03-30 00:02:00,
2013-03-29 20:08:00,51.4,25.3,30.29,NW,315,0.0,0.0,36,0.00,,,0.00,meteohub,2013-03-30 00:08:00,
2013-03-29 20:13:00,50.9,25.5,30.29,NW,315,0.0,0.0,37,0.00,,,0.00,meteohub,2013-03-30 00:13:00,
2013-03-29 20:18:00,50.5,25.9,30.29,NW,315,0.0,0.0,38,0.00,,,0.00,meteohub,2013-03-30 00:18:00,
2013-03-29 20:23:00,50.0,26.1,30.29,NW,315,0.0,0.0,39,0.00,,,0.00,meteohub,2013-03-30 00:23:00,
2013-03-29 20:28:00,49.6,27.0,30.29,NW,315,0.0,0.0,41,0.00,,,0.00,meteohub,2013-03-30 00:28:00,
2013-03-29 20:33:00,49.1,27.0,30.29,NW,315,0.0,0.0,42,0.00,,,0.00,meteohub,2013-03-30 00:33:00,
2013-03-29 20:38:00,48.9,28.0,30.30,NW,315,0.0,0.0,44,0.00,,,0.00,meteohub,2013-03-30 00:38:00,
2013-03-29 20:44:00,48.6,27.7,30.29,NW,315,0.0,0.0,44,0.00,,,0.00,meteohub,2013-03-30 00:44:00,
2013-03-29 20:49:00,48.2,27.3,30.30,NW,315,0.0,0.0,44,0.00,,,0.00,meteohub,2013-03-30 00:49:00,
2013-03-29 20:54:00,47.8,28.0,30.30,NW,315,0.0,0.0,46,0.00,,,0.00,meteohub,2013-03-30 00:54:00,
2013-03-29 20:59:00,47.5,27.7,30.30,NW,315,0.0,0.0,46,0.00,,,0.00,meteohub,2013-03-30 00:59:00,
2013-03-29 21:04:00,47.1,27.9,30.30,NW,315,0.0,0.0,47,0.00,,,0.00,meteohub,2013-03-30 01:04:00,
2013-03-29 21:09:00,46.9,28.2,30.30,NW,315,0.0,0.0,48,0.00,,,0.00,meteohub,2013-03-30 01:09:00,
2013-03-29 21:14:00,46.4,27.9,30.30,NW,315,0.0,0.0,48,0.00,,,0.00,meteohub,2013-03-30 01:14:00,
2013-03-29 21:19:00,46.0,28.4,30.30,NW,315,0.0,0.0,50,0.00,,,0.00,meteohub,2013-03-30 01:19:00,
2013-03-29 21:25:00,45.9,28.8,30.30,NW,315,0.0,0.0,51,0.00,,,0.00,meteohub,2013-03-30 01:25:00,
2013-03-29 21:30:00,45.5,28.4,30.30,NW,315,0.0,0.0,51,0.00,,,0.00,meteohub,2013-03-30 01:30:00,
2013-03-29 21:35:00,45.3,28.2,30.30,NW,315,0.0,0.0,51,0.00,,,0.00,meteohub,2013-03-30 01:35:00,
2013-03-29 21:40:00,45.1,28.6,30.30,NW,315,0.0,0.0,52,0.00,,,0.00,meteohub,2013-03-30 01:40:00,
2013-03-29 21:46:00,45.0,28.9,30.30,NW,315,0.0,0.0,53,0.00,,,0.00,meteohub,2013-03-30 01:46:00,
2013-03-29 21:51:00,44.6,28.6,30.30,NW,315,0.0,0.0,53,0.00,,,0.00,meteohub,2013-03-30 01:51:00,
2013-03-29 21:56:00,44.4,28.8,30.30,NW,315,0.0,0.0,54,0.00,,,0.00,meteohub,2013-03-30 01:56:00,
2013-03-29 22:02:00,44.2,28.6,30.30,NW,315,0.0,0.0,54,0.00,,,0.00,meteohub,2013-03-30 02:02:00,
2013-03-29 22:07:00,43.9,28.8,30.30,NW,315,0.0,0.0,55,0.00,,,0.00,meteohub,2013-03-30 02:07:00,
2013-03-29 22:12:00,43.7,29.1,30.31,NW,315,0.0,0.0,56,0.00,,,0.00,meteohub,2013-03-30 02:12:00,
2013-03-29 22:17:00,43.5,28.9,30.30,NW,315,0.0,0.0,56,0.00,,,0.00,meteohub,2013-03-30 02:17:00,
2013-03-29 22:22:00,43.3,28.8,30.31,NW,315,0.0,0.0,56,0.00,,,0.00,meteohub,2013-03-30 02:22:00,
2013-03-29 22:28:00,43.2,28.6,30.31,NW,315,0.0,0.0,56,0.00,,,0.00,meteohub,2013-03-30 02:28:00,
2013-03-29 22:33:00,43.2,28.9,30.31,NW,315,0.0,0.0,57,0.00,,,0.00,meteohub,2013-03-30 02:33:00,
2013-03-29 22:38:00,43.2,28.9,30.31,NW,315,0.0,0.0,57,0.00,,,0.00,meteohub,2013-03-30 02:38:00,
2013-03-29 22:44:00,43.2,28.9,30.30,NW,315,0.0,0.0,57,0.00,,,0.00,meteohub,2013-03-30 02:44:00,
2013-03-29 22:48:00,43.3,29.1,30.31,NW,315,0.0,0.0,57,0.00,,,0.00,meteohub,2013-03-30 02:48:00,
2013-03-29 22:54:00,43.3,29.1,30.31,NW,315,0.0,0.0,57,0.00,,,0.00,meteohub,2013-03-30 02:54:00,
2013-03-29 22:59:00,43.3,29.5,30.31,NW,315,0.0,0.0,58,0.00,,,0.00,meteohub,2013-03-30 02:59:00,
2013-03-29 23:04:00,43.5,29.7,30.31,NW,315,0.0,0.0,58,0.00,,,0.00,meteohub,2013-03-30 03:04:00,
2013-03-29 23:09:00,43.5,29.7,30.31,NW,315,0.0,0.0,58,0.00,,,0.00,meteohub,2013-03-30 03:09:00,
2013-03-29 23:15:00,43.7,30.4,30.31,NW,315,0.0,0.0,59,0.00,,,0.00,meteohub,2013-03-30 03:15:00,
2013-03-29 23:20:00,43.9,30.9,30.31,NW,315,0.0,0.0,60,0.00,,,0.00,meteohub,2013-03-30 03:20:00,
2013-03-29 23:25:00,44.1,31.1,30.31,NW,315,0.0,0.0,60,0.00,,,0.00,meteohub,2013-03-30 03:25:00,
2013-03-29 23:30:00,44.4,31.5,30.31,NW,315,0.0,0.0,60,0.00,,,0.00,meteohub,2013-03-30 03:30:00,
2013-03-29 23:35:00,44.6,31.6,30.31,NW,315,0.0,0.0,60,0.00,,,0.00,meteohub,2013-03-30 03:35:00,
2013-03-29 23:40:00,45.0,31.5,30.31,NW,315,0.0,0.0,59,0.00,,,0.00,meteohub,2013-03-30 03:40:00,
2013-03-29 23:45:00,45.5,31.1,30.31,NW,315,0.0,0.0,57,0.00,,,0.00,meteohub,2013-03-30 03:45:00,
2013-03-29 23:50:00,45.9,31.1,30.31,NW,315,0.0,0.0,56,0.00,,,0.00,meteohub,2013-03-30 03:50:00,
2013-03-29 23:55:00,46.6,31.6,30.31,NW,315,0.0,0.0,56,0.00,,,0.00,meteohub,2013-03-30 03:55:00,